Weather History for KGRR - December, 2013

Change the Weather History Date:

Friday, December 20, 2013

  Actual Average Record
Temperature  
Mean Temperature 33 °F 28 °F  
Max Temperature 34 °F 33 °F 58 °F (1949)
Min Temperature 31 °F 22 °F -3 °F (1983)
Degree Days  
Heating Degree Days 32 37  
Month to date heating degree days 768 687  
Since 1 July heating degree days 2090 2025  
Cooling Degree Days 0 0  
Month to date cooling degree days 0 0  
Year to date cooling degree days 767 699  
Moisture  
Dew Point 30 °F    
Average Humidity 89    
Maximum Humidity 92    
Minimum Humidity 85    
Precipitation  
Precipitation 0.28 in 0.07 in 3.82 in (1895)
Month to date precipitation 1.81 1.66  
Year to date precipitation 44.59 37.43  
Snow  
Snow 0.00 in 0.80 in 7.90 in (1951)
Month to date snowfall 22.2 13.3  
Since 1 July snowfall 24.4 20.6  
Snow Depth 6.00 in    
Sea Level Pressure  
Sea Level Pressure 29.81 in    
Wind  
Wind Speed 10 mph (ENE)    
Max Wind Speed 16 mph    
Max Gust Speed 21 mph    
Visibility 5 miles    
Events Rain    
T = Trace of Precipitation, MM = Missing Value Source: NWS Daily Summary

Daily Weather History Graph

Daily Weather History Graph

Search for Another Location

Airport or City:

Trip Planner

Search our weather history database for the weather conditions in past years. The results will help you decide how hot, cold, wet, or windy it might be!

Date:

Astronomy

Dec. 20, 2013 Rise Set
Actual Time 8:09 AM EST 5:10 PM EST
Civil Twilight 7:36 AM EST 5:42 PM EST
Nautical Twilight 7:01 AM EST 6:18 PM EST
Astronomical Twilight 6:26 AM EST 6:53 PM EST
Moon 8:34 PM EST (12/20) 9:59 AM EST (12/20)
Length of Visible Light 10h 05m
Length of Day
9h 01m
Waning Gibbous, 90% of the Moon is Illuminated
Dec 20
Waning Gibbous
Dec 25
Last Quarter
Jan 1
New
Jan 7
First Quarter
Jan 15
Full

Hourly Weather History & Observations

Time (EST) Temp. Windchill Dew Point Humidity Pressure Visibility Wind Dir Wind Speed Gust Speed Precip Events Conditions
12:20 AM 32.0 °F 23.0 °F 28.4 °F 87% 29.86 in 1.8 mi East 11.5 mph - 0.00 in Rain Light Freezing Rain
12:53 AM 32.0 °F 24.2 °F 28.9 °F 88% 29.87 in 1.8 mi ENE 9.2 mph - 0.00 in Rain Light Freezing Rain
1:02 AM 32.0 °F 24.8 °F 28.4 °F 87% 29.84 in 1.8 mi ENE 8.1 mph - 0.00 in Rain Light Freezing Rain
1:13 AM 32.0 °F 24.2 °F 28.4 °F 87% 29.83 in 2.0 mi East 9.2 mph - 0.00 in Rain Light Freezing Rain
1:37 AM 32.0 °F 24.2 °F 28.4 °F 87% 29.83 in 2.5 mi ENE 9.2 mph - 0.00 in   Overcast
1:53 AM 32.0 °F 23.0 °F 28.9 °F 88% 29.86 in 3.0 mi ENE 11.5 mph - 0.00 in   Overcast
2:29 AM 32.0 °F 23.0 °F 28.4 °F 87% 29.82 in 2.5 mi East 11.5 mph - 0.00 in   Overcast
2:43 AM 32.0 °F 24.2 °F 28.4 °F 87% 29.82 in 2.5 mi East 9.2 mph - 0.00 in Rain Light Freezing Rain
2:53 AM 32.0 °F 24.8 °F 28.9 °F 88% 29.84 in 2.5 mi East 8.1 mph - 0.00 in Rain Light Freezing Rain
3:53 AM 32.0 °F 23.6 °F 28.9 °F 88% 29.83 in 1.5 mi ENE 10.4 mph - 0.02 in Rain Light Freezing Rain
4:13 AM 32.0 °F 23.0 °F 28.4 °F 87% 29.80 in 2.0 mi ENE 11.5 mph - 0.00 in Rain Light Freezing Rain
4:53 AM 32.0 °F 23.6 °F 28.9 °F 88% 29.81 in 2.5 mi East 10.4 mph - 0.00 in Rain Light Freezing Rain
5:09 AM 32.0 °F 24.2 °F 30.2 °F 93% 29.79 in 3.0 mi East 9.2 mph - 0.00 in Rain Light Freezing Rain
5:24 AM 32.0 °F 24.2 °F 30.2 °F 93% 29.78 in 3.0 mi ENE 9.2 mph - 0.00 in   Overcast
5:39 AM 32.0 °F 24.8 °F 30.2 °F 93% 29.78 in 2.5 mi ENE 8.1 mph - 0.00 in   Light Freezing Drizzle
5:45 AM 32.0 °F 24.2 °F 30.2 °F 93% 29.78 in 2.0 mi ENE 9.2 mph - 0.00 in Rain Light Freezing Rain
5:53 AM 32.0 °F 24.2 °F 30.0 °F 92% 29.81 in 2.0 mi ENE 9.2 mph - 0.01 in Rain Light Freezing Rain
6:30 AM 33.8 °F 25.3 °F 30.2 °F 87% 29.80 in 4.0 mi ENE 11.5 mph - 0.01 in Rain Light Freezing Rain
6:44 AM 33.8 °F 25.3 °F 30.2 °F 87% 29.80 in 5.0 mi NE 11.5 mph - 0.01 in Rain Light Freezing Rain
6:53 AM 33.1 °F 24.4 °F 30.0 °F 89% 29.82 in 6.0 mi ENE 11.5 mph - 0.01 in Rain Light Freezing Rain
7:53 AM 32.0 °F 24.2 °F 28.0 °F 85% 29.83 in 10.0 mi NE 9.2 mph - 0.01 in Rain Light Freezing Rain
8:53 AM 30.9 °F 22.8 °F 28.0 °F 89% 29.84 in 8.0 mi NE 9.2 mph - 0.02 in Rain Light Freezing Rain
9:29 AM 30.2 °F 20.8 °F 28.4 °F 93% 29.82 in 9.0 mi ENE 11.5 mph - 0.00 in   Light Freezing Drizzle
9:53 AM 30.9 °F 21.7 °F 28.0 °F 89% 29.85 in 10.0 mi ENE 11.5 mph - 0.00 in   Light Freezing Drizzle
10:04 AM 30.2 °F 20.8 °F 28.4 °F 93% 29.83 in 9.0 mi ENE 11.5 mph - 0.00 in Rain Light Freezing Rain
10:41 AM 32.0 °F 24.2 °F 28.4 °F 87% 29.83 in 10.0 mi ENE 9.2 mph - 0.00 in   Light Freezing Drizzle
10:53 AM 32.0 °F 22.5 °F 28.0 °F 85% 29.87 in 10.0 mi East 12.7 mph - 0.00 in   Light Freezing Drizzle
11:49 AM 32.0 °F 23.0 °F 28.4 °F 87% 29.81 in 5.0 mi East 11.5 mph - 0.00 in Rain Light Freezing Rain
11:53 AM 32.0 °F 23.0 °F 28.9 °F 88% 29.83 in 5.0 mi East 11.5 mph - 0.00 in Rain Light Freezing Rain
12:53 PM 33.1 °F 24.4 °F 30.0 °F 89% 29.80 in 5.0 mi ENE 11.5 mph - 0.02 in Rain Light Freezing Rain
1:53 PM 33.1 °F 26.1 °F 30.0 °F 89% 29.79 in 4.0 mi ENE 8.1 mph - 0.01 in Rain Light Freezing Rain
2:04 PM 33.8 °F 25.3 °F 30.2 °F 87% 29.77 in 2.0 mi ENE 11.5 mph - 0.00 in Rain Light Freezing Rain
2:35 PM 33.8 °F 24.3 °F 30.2 °F 87% 29.77 in 2.5 mi ENE 13.8 mph - 0.03 in Rain Light Freezing Rain
2:53 PM 33.1 °F 23.4 °F 30.0 °F 89% 29.79 in 2.5 mi ENE 13.8 mph - 0.06 in Rain Light Freezing Rain
3:00 PM 33.8 °F 25.3 °F 30.2 °F 87% 29.76 in 6.0 mi ENE 11.5 mph - 0.00 in Rain Light Freezing Rain
3:53 PM 33.1 °F 26.1 °F 30.0 °F 89% 29.78 in 3.0 mi ENE 8.1 mph - 0.00 in Rain Light Freezing Rain
4:28 PM 33.8 °F 25.3 °F 30.2 °F 87% 29.76 in 3.0 mi ENE 11.5 mph - 0.03 in   Light Freezing Drizzle
4:53 PM 33.1 °F 24.4 °F 30.0 °F 89% 29.77 in 5.0 mi ENE 11.5 mph - 0.03 in Rain Light Freezing Rain
5:30 PM 33.8 °F 24.8 °F 30.2 °F 87% 29.74 in 6.0 mi ENE 12.7 mph - 0.02 in Rain Light Rain
5:53 PM 34.0 °F 25.5 °F 30.9 °F 89% 29.79 in 4.0 mi NE 11.5 mph - 0.04 in Rain Rain
6:53 PM 34.0 °F 28.0 °F 30.9 °F 89% 29.80 in 10.0 mi ENE 6.9 mph - 0.03 in Rain Light Rain
7:53 PM 34.0 °F 25.5 °F 30.0 °F 85% 29.77 in 10.0 mi NE 11.5 mph - 0.00 in   Overcast
8:53 PM 34.0 °F 26.0 °F 30.9 °F 89% 29.78 in 9.0 mi East 10.4 mph - N/A   Overcast
9:53 PM 34.0 °F 26.6 °F 30.9 °F 89% 29.78 in 6.0 mi East 9.2 mph - N/A   Overcast
10:40 PM 33.8 °F 28.6 °F 30.2 °F 87% 29.75 in 2.5 mi ENE 5.8 mph - 0.00 in   Light Freezing Drizzle
10:53 PM 33.1 °F 27.7 °F 30.9 °F 92% 29.79 in 2.0 mi ENE 5.8 mph - 0.00 in   Light Freezing Drizzle
11:53 PM 33.1 °F 27.7 °F 30.9 °F 92% 29.76 in 2.5 mi East 5.8 mph - 0.00 in   Light Freezing Drizzle